Home > Weather > Belém > Past weeks

Flag for Brazil Weather for the Past 2 Weeks in Belém, Pará, Brazil

Now
81 °F

Sunny.


Feels Like: 86 °F
Forecast: 76 / 86 °F
Wind: 3 mph from East

Location: Belem Aeroporto

Current Time: May 1, 2016 at 9:05:12 AM

Latest Report: May 1, 2016 at 8:00 AM


Visibility: 10 mi

Pressure: 29.89 "Hg

Humidity: 84%

Dew Point: 75 °F

Location of BelémLocation

Historic Weather in Belém — Graph

°F

Belém Temperature Yesterday

Maximum temperature yesterday: 88 °F (at 12:00 PM)
Minimum temperature yesterday: 77 °F (at 12:00 AM)
Average temperature yesterday: 80 °F

High & Low Weather Summary for the Past Weeks

 TemperatureHumidityPressure
High91 °F (Apr 17, 2:00 PM)100% (Apr 17, 6:00 AM)29.95 "Hg (Apr 17, 6:00 AM)
Low75 °F (Apr 17, 6:00 AM)52% (Apr 26, 1:00 PM)29.71 "Hg (Apr 20, 4:00 PM)
Average81 °F84%29.83 "Hg
* Reported Apr 16 8:00 AM — May 1 8:00 AM, Belém, Weather by CustomWeather, © 2016

Note: Actual official high and low records may vary slightly from our data, if they occured in-between our weather recording intervals... More about our weather records

Advertising

Belém Weather History for the Previous 24 Hours

Scroll right to see more
 ConditionsComfort  
Time TempWeatherWind HumidityBarometerVisibility
8:00 AM
Sun, May 1
81 °FSunny.3 mph84%29.89 "Hg10 mi
7:00 AM77 °FSunny.13 mph94%29.89 "Hg10 mi
6:00 AM77 °FClear.2 mph94%29.86 "Hg10 mi
5:00 AM77 °FClear.No wind94%29.83 "Hg10 mi
4:00 AM77 °FClear.2 mph94%29.83 "Hg10 mi
3:00 AM77 °FClear.3 mph94%29.83 "Hg10 mi
2:00 AM77 °FClear.3 mph94%29.83 "Hg10 mi
1:00 AM79 °FPassing clouds.3 mph89%29.86 "HgN/A
12:00 AM79 °FPassing clouds.5 mph89%29.89 "HgN/A
11:00 PM
Sat, Apr 30
79 °FPassing clouds.No wind89%29.89 "HgN/A
10:00 PM79 °FPassing clouds.5 mph89%29.89 "HgN/A
9:00 PM79 °FPartly cloudy.3 mph89%29.89 "HgN/A
8:00 PM77 °FPartly cloudy.7 mph89%29.83 "HgN/A
7:00 PM77 °FPassing clouds.7 mph89%29.83 "HgN/A
6:00 PM79 °FPartly sunny.6 mph89%29.83 "HgN/A
5:00 PM79 °FThunderstorms. Broken clouds.13 mph94%N/A3 mi
4:00 PM84 °FPartly sunny.12 mph74%29.74 "HgN/A
3:00 PM86 °FPartly sunny.7 mph75%29.77 "HgN/A
2:00 PM88 °FPartly sunny.5 mph70%29.80 "HgN/A
1:00 PM86 °FPartly sunny.5 mph75%29.83 "HgN/A
12:00 PM88 °FPartly sunny.8 mph70%29.86 "HgN/A
11:00 AM86 °FPartly sunny.8 mph70%29.89 "HgN/A
10:00 AM84 °FScattered clouds.3 mph74%29.89 "HgN/A
9:00 AM82 °FPartly sunny.3 mph79%29.89 "HgN/A
Weather by CustomWeather, © 2016

See weather overviewHow to use our weather pages